Regional Weather Roundup
Issued by NWS

Home | Current Version | Previous Version | Text Only | Print | Product List | Glossary Off
Versions: 1 2 3 4 5 6 7 8 9 10 11 12 13 14 15 16 17 18 19 20 21 22 23 24 25 26 27 28 29 30 31 32 33 34 35 36 37 38 39 40 41 42 43 44 45 46 47 48 49 50

927
ASUS45 KCYS 171510
RWRWY

WYOMING REGIONAL WEATHER ROUNDUP
NATIONAL WEATHER SERVICE CHEYENNE WY
800 AM MST FRI NOV 17 2017

NOTE:  "FAIR" INDICATES FEW OR NO CLOUDS BELOW 12,000 FEET
WITH NO SIGNIFICANT WEATHER AND/OR OBSTRUCTIONS TO VISIBILITY.

WYZ001-171600-
YELLOWSTONE NATIONAL PARK

CITY           SKY/WX    TMP DP  RH WIND       PRES   REMARKS
LK YELLOWSTONE   N/A     22  21  96 W9G24     29.67R WCI  12
W YELLOWSTONE  NOT AVBL

$$
WYZ002>013-054>058-071-098>099-171600-
NORTHERN WYOMING

CITY           SKY/WX    TMP DP  RH WIND       PRES   REMARKS
JACKSON        FLURRIES  33  25  72 SW14G21   29.68R WCI  23
CODY           LGT SNOW  32  30  92 W3        29.64R FOG
GREYBULL       CLOUDY    35  32  88 NW5       29.61F WCI  31
WORLAND        CLOUDY    32  31  96 CALM      29.62R
SHERIDAN       CLOUDY    33  33 100 S5        29.67F WCI  29
BUFFALO        SNOW      32  30  92 E6        29.67F VSB 1/4 WCI  26
GILLETTE       CLOUDY    33  32  96 SW3       29.69R FOG
HULETT         LGT SNOW  34  32  93 CALM      29.70R
NEWCASTLE      CLOUDY    36  32  87 E6        29.70R WCI  31

$$
WYZ014>020-022>026-101>103-171600-
CENTRAL WYOMING

CITY           SKY/WX    TMP DP  RH WIND       PRES   REMARKS
BIG PINEY      CLOUDY    30  30 100 S6        29.71R WCI  24
PINEDALE       CLOUDY    30  28  93 W3        29.71S
DUBOIS         FAIR      28  21  74 W10G21    29.62R WCI  19
LANDER         MOCLDY    39  31  72 SW9       29.61F WCI  33
RIVERTON       MOCLDY    36  33  89 S5        29.62F WCI  32
CASPER         LGT RAIN  38  36  92 SW7       29.67R WCI  33
DOUGLAS        CLOUDY    42  39  89 W10       29.66R

$$
WYZ021-027>030-104>119-171600-
SOUTHERN WYOMING

CITY           SKY/WX    TMP DP  RH WIND       PRES   REMARKS
EVANSTON       HVY SNOW  32  32 100 W16G23    29.78R VSB 1/4 WCI  21
FORT BRIDGER   HVY SNOW  34  34 100 CALM      29.80R VSB 1/4
ROCK SPRINGS   HVY SNOW  31  31 100 W9        29.75R VSB 1/4 WCI  23
DIXON          RAIN      42  37  81 CALM      29.73F
RAWLINS        MIX PCPN  35  33  92 NW13      29.70F WCI  26
SARATOGA       DRIZZLE   37  37 100 N9        29.73R WCI  31
LARAMIE        CLOUDY    37  37 100 E8        29.72F WCI  31
CHEYENNE       FAIR      44  36  73 NW20G25   29.68R
TORRINGTON     PTSUNNY   41  32  70 E14       29.67F
PINE BLUFFS    FAIR      45  32  61 MISG      29.71R

$$




USA.gov is the U.S. government's official web portal to all federal, state and local government web resources and services.